Location: Unspecified
(44.0704°N, 88.6889°W)
Time: 03:03:51
(UTC+02:00)

Altair - All Passes

Search period start: 16 June 2019 00:00
Search period end: 26 June 2019 00:00
Orbit: 1501 x 1683 km, 47.2° (Epoch: 14 June)

Date Brightness Start Highest point End Pass type
(mag) Time Alt. Az. Time Alt. Az. Time Alt. Az.
16 Jun - 03:16:18 10° S 03:23:09 23° SE 03:30:10 10° E daylight
16 Jun - 05:17:01 10° SW 05:26:29 65° SSE 05:36:20 10° ENE visible
16 Jun - 07:21:31 10° W 07:31:23 78° N 07:41:34 10° ENE visible
16 Jun - 09:26:50 10° WNW 09:36:54 82° NNE 09:47:08 10° ESE visible
16 Jun - 11:31:51 10° WNW 11:41:37 56° SW 11:51:23 10° SE visible
16 Jun - 13:38:45 10° W 13:44:48 18° SW 13:50:50 10° SSW daylight
17 Jun - 02:51:45 10° S 02:58:08 20° SE 03:04:39 10° E daylight
17 Jun - 04:51:58 10° SW 05:01:21 61° SE 05:11:06 10° ENE visible
17 Jun - 06:56:19 10° W 07:06:08 79° N 07:16:18 10° ENE visible
17 Jun - 09:01:37 10° WNW 09:11:39 80° NNE 09:21:53 10° E visible
17 Jun - 11:06:39 10° WNW 11:16:27 59° SW 11:26:20 10° SE visible
17 Jun - 13:13:09 10° W 13:19:45 20° SW 13:26:22 10° SSW daylight
18 Jun - 02:27:17 10° SSE 02:33:07 18° SE 02:39:04 10° E daylight
18 Jun - 04:26:57 10° SW 04:36:13 58° SE 04:45:51 10° ENE visible
18 Jun - 06:31:06 10° WSW 06:40:53 81° NNW 06:51:03 10° ENE visible
18 Jun - 08:36:25 10° WNW 08:46:24 79° NNE 08:56:37 10° E visible
18 Jun - 10:41:25 10° WNW 10:51:17 63° SW 11:01:15 10° SE visible
18 Jun - 12:47:37 10° W 12:54:43 22° SW 13:01:49 10° S daylight
19 Jun - 02:02:56 10° SSE 02:08:07 16° ESE 02:13:23 10° E daylight
19 Jun - 04:01:56 10° SW 04:11:05 54° SE 04:20:36 10° ENE visible
19 Jun - 06:05:55 10° WSW 06:15:39 82° NNW 06:25:48 10° ENE visible
19 Jun - 08:11:12 10° WNW 08:21:09 78° N 08:31:21 10° E visible
19 Jun - 10:16:13 10° WNW 10:26:07 66° SSW 10:36:09 10° SE visible
19 Jun - 12:22:09 10° W 12:29:39 24° SW 12:37:11 10° S daylight
20 Jun - 01:38:45 10° SSE 01:43:08 14° ESE 01:47:33 10° E daylight
20 Jun - 03:36:58 10° SSW 03:45:58 51° SE 03:55:21 10° ENE daylight
20 Jun - 05:40:43 10° WSW 05:50:26 84° NNW 06:00:32 10° ENE visible
20 Jun - 07:45:59 10° W 07:55:53 76° N 08:06:05 10° E visible
20 Jun - 09:51:01 10° WNW 10:00:56 70° SSW 10:11:01 10° SE visible
20 Jun - 11:56:44 10° WNW 12:04:35 27° SW 12:12:28 10° S daylight
21 Jun - 01:14:51 10° SE 01:18:08 12° ESE 01:21:27 10° E daylight
21 Jun - 03:12:00 10° SSW 03:20:52 47° SE 03:30:04 10° ENE daylight
21 Jun - 05:15:33 10° WSW 05:25:12 87° NNW 05:35:17 10° ENE visible
21 Jun - 07:20:46 10° W 07:30:38 76° N 07:40:48 10° E visible
21 Jun - 09:25:48 10° WNW 09:35:45 73° SSW 09:45:52 10° SE visible
21 Jun - 11:31:22 10° WNW 11:39:31 29° SW 11:47:43 10° S visible
22 Jun - 00:51:49 10° SE 00:53:09 10° ESE 00:54:31 10° ESE daylight
22 Jun - 02:47:04 10° SSW 02:55:47 44° SE 03:04:48 10° ENE daylight
22 Jun - 04:50:23 10° WSW 04:59:59 89° NNW 05:10:03 10° ENE visible
22 Jun - 06:55:34 10° W 07:05:22 75° N 07:15:31 10° E visible
22 Jun - 09:00:37 10° WNW 09:10:33 77° SSW 09:20:42 10° SE visible
22 Jun - 11:06:01 10° WNW 11:14:26 32° SW 11:22:56 10° S visible
23 Jun - 02:22:11 10° SSW 02:30:42 40° SE 02:39:31 10° ENE daylight
23 Jun - 04:25:13 10° WSW 04:34:48 88° SSE 04:44:48 10° ENE visible
23 Jun - 06:30:21 10° W 06:40:08 74° N 06:50:15 10° E visible
23 Jun - 08:35:25 10° WNW 08:45:21 80° SSW 08:55:31 10° ESE visible
23 Jun - 10:40:42 10° WNW 10:49:21 34° SW 10:58:05 10° SSE visible
24 Jun - 01:57:19 10° SSW 02:05:37 37° SE 02:14:13 10° ENE daylight
24 Jun - 04:00:05 10° WSW 04:09:36 85° SSE 04:19:33 10° ENE visible
24 Jun - 06:05:08 10° W 06:14:52 74° N 06:24:58 10° E visible
24 Jun - 08:10:14 10° WNW 08:20:09 83° SSW 08:30:20 10° ESE visible
24 Jun - 10:15:25 10° WNW 10:24:15 37° SW 10:33:12 10° SSE visible
25 Jun - 01:32:29 10° SSW 01:40:34 34° SE 01:48:54 10° ENE daylight
25 Jun - 03:34:56 10° WSW 03:44:25 82° SSE 03:54:19 10° ENE daylight
25 Jun - 05:39:55 10° W 05:49:36 74° N 05:59:41 10° E visible
25 Jun - 07:45:03 10° WNW 07:54:56 86° SSW 08:05:07 10° ESE visible
25 Jun - 09:50:09 10° WNW 09:59:08 40° SW 10:08:17 10° SSE visible
